Weather History for Alexandria, LA

Change the Weather History Date:

Wednesday, November 21, 2012

  Actual Average Record
Temperature  
Mean Temperature 61 °F 56 °F  
Max Temperature 78 °F 67 °F 84 °F (1942)
Min Temperature 43 °F 44 °F 27 °F (2006)
Degree Days  
Heating Degree Days 4 10  
Month to date heating degree days 168 149  
Since 1 July heating degree days 263 222  
Growing Degree Days 11 (Base 50)    
Moisture  
Dew Point 43 °F    
Average Humidity 58    
Maximum Humidity 93    
Minimum Humidity 23    
Precipitation  
Precipitation 0.00 in 0.22 in 3.28 in (1906)
Month to date precipitation 0.43 3.31  
Year to date precipitation 47.95 47.62  
Snow  
Snow 0.00 in - 0.00 in ()
Month to date snowfall 0.0  
Since 1 July snowfall 0.0  
Since 1 September snowfall 0.0  
Snow Depth 0.00 in    
Sea Level Pressure  
Sea Level Pressure 30.20 in    
Wind  
Wind Speed 2 mph (North)    
Max Wind Speed 13 mph    
Max Gust Speed 16 mph    
Visibility 9 miles    
Events      
T = Trace of Precipitation, MM = Missing Value Source: NWS Daily Summary

Daily Weather History Graph

Daily Weather History Graph

Search for Another Location

Airport:

Trip Planner

Search our weather history database for the weather conditions in past years. The results will help you decide how hot, cold, wet, or windy it might be!

Date:

Astronomy

Nov. 21, 2012 Rise Set
Actual Time 6:43 AM CST 5:08 PM CST
Civil Twilight 6:17 AM CST 5:34 PM CST
Nautical Twilight 5:47 AM CST 6:04 PM CST
Astronomical Twilight 5:18 AM CST 6:33 PM CST
Moon 1:04 PM CST 12:26 AM CST
Length of Visible Light 11h 17m
Length of Day
10h 25m
First Quarter, 62% of the Moon is Illuminated
Nov 21
First Quarter
Nov 28
Full
Dec 6
Last Quarter
Dec 13
New
Dec 19
First Quarter

Hourly Weather History & Observations

Time (CST) Temp. Dew Point Humidity Pressure Visibility Wind Dir Wind Speed Gust Speed Precip Events Conditions
12:53 AM 48.0 °F 44.1 °F 86% 30.18 in 6.0 mi Calm Calm - N/A   Clear
1:53 AM 48.0 °F 41.0 °F 77% 30.18 in 8.0 mi Calm Calm - N/A   Clear
2:53 AM 46.0 °F 45.0 °F 96% 30.18 in 6.0 mi Calm Calm - N/A   Clear
3:53 AM 45.0 °F 39.0 °F 80% 30.18 in 7.0 mi Calm Calm - N/A   Clear
4:53 AM 44.1 °F 42.1 °F 93% 30.18 in 7.0 mi Calm Calm - N/A   Clear
5:53 AM 45.0 °F 43.0 °F 93% 30.20 in 6.0 mi Calm Calm - N/A   Clear
6:53 AM 45.0 °F 41.0 °F 86% 30.23 in 7.0 mi Calm Calm - N/A   Clear
7:53 AM 51.1 °F 48.0 °F 89% 30.24 in 6.0 mi Calm Calm - N/A   Clear
8:07 AM 51.8 °F 48.2 °F 88% 30.23 in 7.0 mi WNW 3.5 mph - N/A   Partly Cloudy
8:53 AM 57.9 °F 51.1 °F 78% 30.26 in 8.0 mi WNW 4.6 mph - N/A   Clear
9:53 AM 66.0 °F 52.0 °F 60% 30.26 in 10.0 mi North 3.5 mph - N/A   Clear
10:53 AM 71.1 °F 53.1 °F 53% 30.25 in 10.0 mi Calm Calm - N/A   Clear
11:53 AM 73.9 °F 48.9 °F 41% 30.23 in 10.0 mi North 8.1 mph - N/A   Clear
12:53 PM 75.9 °F 41.0 °F 29% 30.20 in 10.0 mi NNW 5.8 mph - N/A   Clear
1:53 PM 78.1 °F 37.9 °F 24% 30.18 in 10.0 mi NNE 6.9 mph - N/A   Clear
2:53 PM 77.0 °F 37.0 °F 24% 30.17 in 10.0 mi North 8.1 mph - N/A   Clear
3:53 PM 75.9 °F 37.0 °F 24% 30.17 in 10.0 mi NNE 5.8 mph - N/A   Clear
4:53 PM 68.0 °F 41.0 °F 37% 30.17 in 10.0 mi NNE 3.5 mph - N/A   Clear
5:53 PM 59.0 °F 41.0 °F 51% 30.18 in 10.0 mi NNE 3.5 mph - N/A   Clear
6:53 PM 61.0 °F 41.0 °F 48% 30.19 in 10.0 mi NE 4.6 mph - N/A   Clear
7:53 PM 54.0 °F 42.1 °F 64% 30.20 in 10.0 mi Calm Calm - N/A   Clear
8:53 PM 51.1 °F 37.9 °F 61% 30.21 in 10.0 mi Calm Calm - N/A   Clear
9:53 PM 48.9 °F 37.9 °F 66% 30.22 in 10.0 mi Calm Calm - N/A   Clear
10:53 PM 46.9 °F 39.9 °F 77% 30.21 in 10.0 mi Calm Calm - N/A   Clear
11:53 PM 46.0 °F 39.9 °F 79% 30.20 in 10.0 mi Calm Calm - N/A   Clear